Eagle River, WI

5:31 AM CDT on July 21, 2017 (GMT -0500)
Eagle River Union

Weather History for KEGV - October, 2013

Change the Weather History Date:

Thursday, October 3, 2013

  Actual Average Record
Temperature  
Mean Temperature 53 °F -  
Max Temperature 61 °F 61 °F 80 °F (1992)
Min Temperature 45 °F 37 °F 21 °F (1999)
Degree Days  
Heating Degree Days 12    
Growing Degree Days 3 (Base 50)    
Moisture  
Dew Point 48 °F    
Average Humidity 82    
Maximum Humidity 100    
Minimum Humidity 61    
Precipitation  
Precipitation 0.81 in - - ()
Sea Level Pressure  
Sea Level Pressure 29.96 in    
Wind  
Wind Speed 5 mph (East)    
Max Wind Speed 14 mph    
Max Gust Speed 21 mph    
Visibility 9 miles    
Events Rain    
Averages and records for this station are not official NWS values.
T = Trace of Precipitation, MM = Missing Value Source: NWS Daily Summary

Daily Weather History Graph

Daily Weather History Graph

Search for Another Location

Airport or City:

Trip Planner

Search our weather history database for the weather conditions in past years. The results will help you decide how hot, cold, wet, or windy it might be!

Date:

Astronomy

Oct. 03, 2013 Rise Set
Actual Time 6:58 AM CDT 6:32 PM CDT
Civil Twilight 6:28 AM CDT 7:02 PM CDT
Nautical Twilight 5:53 AM CDT 7:37 PM CDT
Astronomical Twilight 5:18 AM CDT 8:12 PM CDT
Moon 5:28 AM CDT (10/3) 5:42 PM CDT (10/3)
Length of Visible Light 12h 33m
Length of Day
11h 34m
Waning Crescent, 2% of the Moon is Illuminated
Oct 3
Waning Crescent
Oct 4
New
Oct 11
First Quarter
Oct 18
Full
Oct 26
Last Quarter

Hourly Weather History & Observations

Time (CDT) Temp. Windchill Dew Point Humidity Pressure Visibility Wind Dir Wind Speed Gust Speed Precip Events Conditions
12:15 AM 53.4 °F - 44.6 °F 72% 30.02 in 10.0 mi NNW 4.6 mph - N/A Rain Light Rain
12:35 AM 53.1 °F - 44.8 °F 73% 30.01 in 10.0 mi Calm Calm - N/A   Overcast
12:55 AM 52.3 °F - 45.5 °F 78% 30.01 in 10.0 mi NW 3.5 mph - N/A Rain Rain
1:15 AM 50.9 °F - 48.7 °F 92% 30.04 in 10.0 mi NW 4.6 mph - 0.02 in Rain Rain
1:35 AM 50.4 °F - 49.6 °F 97% 30.03 in 7.0 mi Calm Calm - 0.08 in Rain Heavy Rain
1:55 AM 50.4 °F - 50.0 °F 99% 30.03 in 7.0 mi Calm Calm - 0.12 in Rain Heavy Rain
2:15 AM 50.0 °F - 49.6 °F 99% 30.02 in 4.0 mi Calm Calm - 0.05 in Rain Heavy Rain
2:35 AM 50.0 °F - 50.0 °F 100% 30.03 in 2.5 mi Calm Calm - 0.15 in Rain Heavy Rain
2:55 AM 50.0 °F - 50.0 °F 100% 30.02 in 3.0 mi SE 4.6 mph - 0.25 in Rain Heavy Rain
3:15 AM 49.8 °F - 49.5 °F 99% 30.02 in 4.0 mi SSE 4.6 mph - 0.11 in Rain Heavy Rain
3:35 AM 49.1 °F - 48.4 °F 97% 30.00 in 7.0 mi SE 8.1 mph - 0.15 in Rain Heavy Rain
3:55 AM 49.5 °F - 49.1 °F 99% 29.98 in 7.0 mi SE 8.1 mph - 0.21 in Rain Rain
4:15 AM 49.8 °F - 49.1 °F 97% 29.95 in 7.0 mi SE 13.8 mph 20.7 mph 0.05 in Rain Heavy Rain
4:35 AM 48.7 °F - 46.8 °F 93% 29.95 in 10.0 mi SE 6.9 mph 17.3 mph 0.08 in Rain Rain
4:55 AM 47.7 °F - 46.4 °F 95% 29.95 in 10.0 mi SE 6.9 mph - 0.09 in Rain Rain
5:15 AM 47.3 °F - 46.4 °F 97% 29.92 in 10.0 mi ESE 9.2 mph - 0.02 in Rain Light Rain
5:35 AM 47.7 °F - 45.1 °F 91% 29.94 in 10.0 mi SE 3.5 mph - 0.02 in Rain Light Rain
5:55 AM 47.8 °F - 45.5 °F 92% 29.96 in 10.0 mi Calm Calm - 0.02 in   Overcast
6:15 AM 46.4 °F - 45.9 °F 98% 29.96 in 10.0 mi Calm Calm - N/A   Scattered Clouds
6:35 AM 45.9 °F 43.6 °F 45.7 °F 99% 29.96 in 10.0 mi ESE 4.6 mph - N/A   Clear
6:55 AM 46.6 °F - 45.3 °F 95% 29.96 in 10.0 mi Calm Calm - N/A   Clear
7:15 AM 46.8 °F - 45.5 °F 95% 29.96 in 10.0 mi East 3.5 mph - N/A   Clear
7:35 AM 47.3 °F - 45.7 °F 94% 29.97 in 10.0 mi Calm Calm - N/A   Scattered Clouds
7:55 AM 48.2 °F - 46.2 °F 93% 29.97 in 10.0 mi Calm Calm - N/A   Scattered Clouds
8:15 AM 49.1 °F - 46.4 °F 90% 29.96 in 10.0 mi Calm Calm - N/A   Scattered Clouds
8:35 AM 51.6 °F - 45.7 °F 80% 29.96 in 10.0 mi ESE 5.8 mph - N/A   Clear
8:55 AM 52.7 °F - 43.5 °F 71% 29.96 in 10.0 mi ESE 8.1 mph - N/A   Clear
9:15 AM 54.3 °F - 44.4 °F 69% 29.97 in 10.0 mi ESE 4.6 mph - 0.01 in   Clear
9:35 AM 54.7 °F - 44.4 °F 68% 29.97 in 10.0 mi ESE 6.9 mph - 0.01 in   Mostly Cloudy
9:55 AM 55.9 °F - 44.1 °F 64% 29.96 in 10.0 mi East 9.2 mph - 0.01 in   Overcast
10:15 AM 55.8 °F - 44.1 °F 65% 29.96 in 10.0 mi East 6.9 mph - N/A   Overcast
10:35 AM 56.8 °F - 44.6 °F 64% 29.95 in 10.0 mi ENE 6.9 mph - N/A   Overcast
10:55 AM 57.0 °F - 45.5 °F 65% 29.95 in 10.0 mi East 6.9 mph - N/A   Overcast
11:15 AM 57.6 °F - 45.7 °F 65% 29.96 in 10.0 mi ESE 5.8 mph - N/A   Overcast
11:35 AM 57.9 °F - 45.7 °F 64% 29.96 in 10.0 mi East 5.8 mph - N/A   Mostly Cloudy
11:55 AM 58.3 °F - 45.5 °F 62% 29.96 in 10.0 mi ENE 8.1 mph - N/A   Scattered Clouds
12:15 PM 58.5 °F - 45.9 °F 63% 29.96 in 10.0 mi ENE 6.9 mph - N/A   Scattered Clouds
12:35 PM 59.4 °F - 46.0 °F 61% 29.96 in 10.0 mi East 6.9 mph - N/A   Scattered Clouds
12:55 PM 59.4 °F - 46.6 °F 63% 29.95 in 10.0 mi East 8.1 mph - N/A   Scattered Clouds
1:15 PM 60.3 °F - 46.9 °F 61% 29.95 in 10.0 mi East 8.1 mph - N/A   Scattered Clouds
1:35 PM 60.4 °F - 47.1 °F 61% 29.94 in 10.0 mi ENE 9.2 mph - N/A   Clear
1:55 PM 60.6 °F - 47.3 °F 61% 29.94 in 10.0 mi East 6.9 mph - N/A   Scattered Clouds
2:15 PM 60.1 °F - 47.1 °F 62% 29.94 in 10.0 mi East 8.1 mph - N/A   Mostly Cloudy
2:35 PM 60.8 °F - 47.3 °F 61% 29.94 in 10.0 mi East 6.9 mph - N/A   Overcast
2:55 PM 60.8 °F - 47.5 °F 62% 29.93 in 10.0 mi ENE 5.8 mph - N/A   Overcast
3:15 PM 61.2 °F - 47.8 °F 62% 29.93 in 10.0 mi ENE 8.1 mph - N/A   Mostly Cloudy
3:35 PM 61.2 °F - 47.8 °F 62% 29.94 in 10.0 mi East 6.9 mph - N/A   Overcast
3:55 PM 61.3 °F - 48.2 °F 62% 29.93 in 10.0 mi ENE 8.1 mph - N/A   Mostly Cloudy
4:15 PM 60.4 °F - 48.0 °F 64% 29.93 in 10.0 mi East 6.9 mph - N/A   Scattered Clouds
4:35 PM 60.3 °F - 48.0 °F 64% 29.93 in 10.0 mi East 6.9 mph - N/A   Clear
4:55 PM 59.9 °F - 48.9 °F 67% 29.93 in 10.0 mi East 4.6 mph - N/A   Clear
5:15 PM 59.5 °F - 48.6 °F 67% 29.93 in 10.0 mi East 6.9 mph - N/A   Clear
5:35 PM 59.0 °F - 48.4 °F 68% 29.95 in 10.0 mi East 4.6 mph - N/A   Mostly Cloudy
5:55 PM 58.5 °F - 48.6 °F 70% 29.95 in 10.0 mi East 6.9 mph - N/A Rain Light Rain
6:15 PM 56.8 °F - 50.4 °F 79% 29.96 in 5.0 mi East 4.6 mph - 0.02 in Rain Heavy Rain
6:35 PM 55.2 °F - 54.0 °F 96% 29.96 in 3.0 mi Calm Calm - 0.06 in Rain Light Rain
6:55 PM 55.6 °F - 54.1 °F 95% 29.95 in 10.0 mi NE 4.6 mph - 0.07 in Rain Rain
7:15 PM 55.2 °F - 52.2 °F 89% 29.96 in 10.0 mi East 8.1 mph - N/A Rain Light Rain
7:35 PM 54.5 °F - 53.4 °F 96% 29.96 in 10.0 mi ENE 6.9 mph - 0.01 in Rain Light Rain
7:55 PM 54.1 °F - 52.3 °F 94% 29.96 in 10.0 mi ENE 8.1 mph - 0.01 in   Light Drizzle
8:15 PM 53.8 °F - 52.7 °F 96% 29.97 in 10.0 mi ENE 5.8 mph - N/A Rain Light Rain
8:35 PM 53.6 °F - 52.0 °F 94% 29.97 in 10.0 mi ENE 8.1 mph - N/A Rain Rain
8:55 PM 52.7 °F - 51.8 °F 97% 29.97 in 10.0 mi NE 6.9 mph - 0.02 in Rain Rain
9:15 PM 52.3 °F - 51.4 °F 97% 29.96 in 7.0 mi ENE 8.1 mph - 0.01 in Rain Light Rain
9:35 PM 51.8 °F - 50.9 °F 97% 29.96 in 7.0 mi ENE 10.4 mph - 0.01 in Rain Rain
9:55 PM 51.8 °F - 50.9 °F 97% 29.97 in 10.0 mi East 4.6 mph - 0.01 in   Overcast
10:15 PM 51.8 °F - 50.9 °F 97% 29.98 in 10.0 mi ENE 4.6 mph - N/A   Overcast
10:35 PM 51.4 °F - 50.9 °F 98% 29.97 in 10.0 mi ENE 8.1 mph - N/A   Overcast
11:35 PM 51.1 °F - 50.2 °F 97% 29.96 in 10.0 mi ENE 5.8 mph - N/A   Overcast
11:55 PM 51.1 °F - 50.2 °F 97% 29.96 in 10.0 mi ENE 5.8 mph - N/A Rain Light Rain